Time,TemperatureF,DewpointF,PressureIn,WindDirection,WindDirectionDegrees,WindSpeedMPH,WindSpeedGustMPH,Humidity,HourlyPrecipIn,Conditions,Clouds,dailyrainin,SoftwareType,DateUTC
2013-01-20 00:00:00,28.2,22.0,29.85,NNW,338,0.0,0.0,77,0.00,,OVC,0.00,VWS V14.01,2013-01-20 05:00:00,
2013-01-20 00:01:00,28.0,21.8,29.85,NNW,338,0.0,0.0,77,0.00,,OVC,0.00,VWS V14.01,2013-01-20 05:01:00,
2013-01-20 00:02:00,27.9,21.6,29.85,NNW,338,0.0,0.0,77,0.00,,OVC,0.00,VWS V14.01,2013-01-20 05:02:00,
2013-01-20 00:07:00,27.5,21.2,29.85,NNW,338,0.0,0.0,77,0.00,,OVC,0.00,VWS V14.01,2013-01-20 05:07:00,
2013-01-20 00:12:00,27.3,21.1,29.85,NNW,338,0.0,0.0,77,0.00,,OVC,0.00,VWS V14.01,2013-01-20 05:12:00,
2013-01-20 00:17:00,27.1,20.9,29.85,NNW,338,0.0,0.0,77,0.00,,OVC,0.00,VWS V14.01,2013-01-20 05:17:00,
2013-01-20 00:22:00,27.1,21.2,29.85,NNW,338,0.0,0.0,78,0.00,,OVC,0.00,VWS V14.01,2013-01-20 05:22:00,
2013-01-20 00:27:00,27.1,21.2,29.85,NNW,338,0.0,0.0,78,0.00,,OVC,0.00,VWS V14.01,2013-01-20 05:27:00,
2013-01-20 00:30:00,27.1,21.2,29.85,NNW,338,0.0,0.0,78,0.00,,OVC,0.00,VWS V14.01,2013-01-20 05:30:00,
2013-01-20 00:32:00,27.1,21.2,29.85,NNW,338,0.0,0.0,78,0.00,,OVC,0.00,VWS V14.01,2013-01-20 05:32:00,
2013-01-20 00:37:00,27.5,21.5,29.85,NNW,338,0.0,0.0,78,0.00,,OVC,0.00,VWS V14.01,2013-01-20 05:37:00,
2013-01-20 00:42:00,27.7,22.0,29.85,ENE,68,2.2,3.1,79,0.00,,OVC,0.00,VWS V14.01,2013-01-20 05:42:00,
2013-01-20 00:47:00,27.9,22.2,29.85,ESE,112,0.0,0.0,79,0.00,,OVC,0.00,VWS V14.01,2013-01-20 05:47:00,
2013-01-20 00:52:00,28.0,22.4,29.85,SE,135,0.0,0.0,79,0.00,,OVC,0.00,VWS V14.01,2013-01-20 05:52:00,
2013-01-20 00:57:00,28.2,22.9,29.85,ESE,112,0.0,0.0,80,0.00,,OVC,0.00,VWS V14.01,2013-01-20 05:57:00,
2013-01-20 01:00:00,28.2,22.9,29.85,ESE,112,0.0,0.0,80,0.00,,OVC,0.00,VWS V14.01,2013-01-20 06:00:00,
2013-01-20 01:02:00,28.4,23.0,29.85,SE,135,0.0,0.0,80,0.00,,OVC,0.00,VWS V14.01,2013-01-20 06:02:00,
2013-01-20 01:07:00,28.8,23.4,29.82,SE,135,0.0,0.0,80,0.00,,OVC,0.00,VWS V14.01,2013-01-20 06:07:00,
2013-01-20 01:12:00,28.9,23.6,29.82,SE,135,0.0,0.0,80,0.00,,OVC,0.00,VWS V14.01,2013-01-20 06:12:00,
2013-01-20 01:17:00,28.9,23.6,29.82,SE,135,0.0,0.0,80,0.00,,OVC,0.00,VWS V14.01,2013-01-20 06:17:00,
2013-01-20 01:22:00,28.9,23.3,29.82,SE,135,0.0,0.0,79,0.00,,OVC,0.00,VWS V14.01,2013-01-20 06:22:00,
2013-01-20 01:27:00,29.1,23.4,29.82,SE,135,0.0,0.0,79,0.00,,OVC,0.00,VWS V14.01,2013-01-20 06:27:00,
2013-01-20 01:30:00,29.1,23.4,29.82,SE,135,0.0,0.0,79,0.00,,OVC,0.00,VWS V14.01,2013-01-20 06:30:00,
2013-01-20 01:32:00,29.1,23.4,29.82,SE,135,0.0,0.0,79,0.00,,OVC,0.00,VWS V14.01,2013-01-20 06:32:00,
2013-01-20 01:37:00,29.3,23.6,29.82,SE,135,0.0,0.0,79,0.00,,OVC,0.00,VWS V14.01,2013-01-20 06:37:00,
2013-01-20 01:42:00,29.3,23.6,29.82,SE,135,0.0,0.0,79,0.00,,OVC,0.00,VWS V14.01,2013-01-20 06:42:00,
2013-01-20 01:47:00,29.5,24.1,29.82,SE,135,0.0,0.0,80,0.00,,OVC,0.00,VWS V14.01,2013-01-20 06:47:00,
2013-01-20 01:52:00,29.5,24.1,29.82,SE,135,0.0,0.0,80,0.00,,OVC,0.00,VWS V14.01,2013-01-20 06:52:00,
2013-01-20 01:57:00,29.7,24.3,29.82,SE,135,0.0,0.0,80,0.00,,OVC,0.00,VWS V14.01,2013-01-20 06:57:00,
2013-01-20 02:00:00,29.7,24.3,29.82,SE,135,0.0,0.0,80,0.00,,OVC,0.00,VWS V14.01,2013-01-20 07:00:00,
2013-01-20 02:02:00,29.7,24.3,29.82,SE,135,0.0,0.0,80,0.00,,OVC,0.00,VWS V14.01,2013-01-20 07:02:00,
2013-01-20 02:07:00,29.7,24.3,29.79,SE,135,0.0,0.0,80,0.00,,OVC,0.00,VWS V14.01,2013-01-20 07:07:00,
2013-01-20 02:12:00,29.7,24.3,29.79,SE,135,0.0,0.0,80,0.00,,OVC,0.00,VWS V14.01,2013-01-20 07:12:00,
2013-01-20 02:17:00,29.7,24.3,29.79,SE,135,0.0,0.0,80,0.00,,OVC,0.00,VWS V14.01,2013-01-20 07:17:00,
2013-01-20 02:22:00,29.7,24.3,29.79,SE,135,0.0,0.0,80,0.00,,OVC,0.00,VWS V14.01,2013-01-20 07:22:00,
2013-01-20 02:27:00,29.7,24.3,29.79,SE,135,0.0,0.0,80,0.00,,OVC,0.00,VWS V14.01,2013-01-20 07:27:00,
2013-01-20 02:30:00,29.7,24.3,29.80,SE,135,0.0,0.0,80,0.00,,OVC,0.00,VWS V14.01,2013-01-20 07:30:00,
2013-01-20 02:32:00,29.7,24.3,29.79,SE,135,0.0,0.0,80,0.00,,OVC,0.00,VWS V14.01,2013-01-20 07:32:00,
2013-01-20 02:37:00,29.7,24.3,29.76,SE,135,0.0,0.0,80,0.00,,OVC,0.00,VWS V14.01,2013-01-20 07:37:00,
2013-01-20 02:42:00,29.8,24.4,29.76,SE,135,0.0,0.0,80,0.00,,OVC,0.00,VWS V14.01,2013-01-20 07:42:00,
2013-01-20 02:47:00,29.8,24.4,29.76,SE,135,0.0,0.0,80,0.00,,OVC,0.00,VWS V14.01,2013-01-20 07:47:00,
2013-01-20 02:52:00,29.8,24.4,29.79,SE,135,0.0,0.0,80,0.00,,OVC,0.00,VWS V14.01,2013-01-20 07:52:00,
2013-01-20 02:58:00,29.8,24.4,29.79,SE,135,0.0,0.0,80,0.00,,OVC,0.00,VWS V14.01,2013-01-20 07:58:00,
2013-01-20 03:00:00,29.8,24.4,29.80,SE,135,0.0,0.0,80,0.00,,OVC,0.00,VWS V14.01,2013-01-20 08:00:00,
2013-01-20 03:03:00,29.8,24.4,29.79,SE,135,0.0,0.0,80,0.00,,OVC,0.00,VWS V14.01,2013-01-20 08:03:00,
2013-01-20 03:08:00,29.8,24.4,29.76,SE,135,0.0,0.0,80,0.00,,OVC,0.00,VWS V14.01,2013-01-20 08:08:00,
2013-01-20 03:13:00,29.8,24.7,29.76,SE,135,0.0,0.0,81,0.00,,OVC,0.00,VWS V14.01,2013-01-20 08:13:00,
2013-01-20 03:18:00,29.8,24.4,29.76,SE,135,0.0,0.0,80,0.00,,OVC,0.00,VWS V14.01,2013-01-20 08:18:00,
2013-01-20 03:23:00,29.7,24.3,29.74,ENE,68,0.0,0.0,80,0.00,,OVC,0.00,VWS V14.01,2013-01-20 08:23:00,
2013-01-20 03:28:00,29.7,24.3,29.74,NE,45,0.0,0.0,80,0.00,,OVC,0.00,VWS V14.01,2013-01-20 08:28:00,
2013-01-20 03:30:00,29.7,24.3,29.74,NE,45,0.0,0.0,80,0.00,,OVC,0.00,VWS V14.01,2013-01-20 08:30:00,
2013-01-20 03:33:00,29.7,24.6,29.74,NE,45,0.0,0.0,81,0.00,,OVC,0.00,VWS V14.01,2013-01-20 08:33:00,
2013-01-20 03:38:00,29.8,25.0,29.74,NE,45,0.0,0.0,82,0.00,,OVC,0.00,VWS V14.01,2013-01-20 08:38:00,
2013-01-20 03:43:00,29.8,25.0,29.74,NE,45,0.0,0.0,82,0.00,,OVC,0.00,VWS V14.01,2013-01-20 08:43:00,
2013-01-20 03:48:00,29.8,25.0,29.74,NE,45,0.0,0.0,82,0.00,,OVC,0.00,VWS V14.01,2013-01-20 08:48:00,
2013-01-20 03:53:00,29.8,25.0,29.74,NNE,22,0.0,0.0,82,0.00,,OVC,0.00,VWS V14.01,2013-01-20 08:53:00,
2013-01-20 03:58:00,29.8,25.0,29.74,North,0,0.0,0.0,82,0.00,,OVC,0.00,VWS V14.01,2013-01-20 08:58:00,
2013-01-20 04:00:00,29.8,25.0,29.74,NNE,22,0.0,0.0,82,0.00,,OVC,0.00,VWS V14.01,2013-01-20 09:00:00,
2013-01-20 04:03:00,30.0,25.5,29.74,NNW,338,0.0,0.0,83,0.00,,OVC,0.00,VWS V14.01,2013-01-20 09:03:00,
2013-01-20 04:08:00,30.0,25.8,29.74,NNW,338,0.0,0.0,84,0.00,,OVC,0.00,VWS V14.01,2013-01-20 09:08:00,
2013-01-20 04:13:00,30.0,25.8,29.74,NNW,338,0.0,0.0,84,0.00,,OVC,0.00,VWS V14.01,2013-01-20 09:13:00,
2013-01-20 04:18:00,29.8,26.2,29.74,NNW,338,0.0,0.0,86,0.00,,OVC,0.00,VWS V14.01,2013-01-20 09:18:00,
2013-01-20 04:23:00,29.8,26.5,29.74,NNW,338,0.0,0.0,87,0.00,,OVC,0.00,VWS V14.01,2013-01-20 09:23:00,
2013-01-20 04:28:00,30.0,26.6,29.74,NNW,338,0.0,0.0,87,0.00,,OVC,0.00,VWS V14.01,2013-01-20 09:28:00,
2013-01-20 04:30:00,30.0,26.6,29.74,NNW,338,0.0,0.0,87,0.00,,OVC,0.00,VWS V14.01,2013-01-20 09:30:00,
2013-01-20 04:33:00,30.2,26.8,29.74,NNW,338,0.0,0.0,87,0.00,,OVC,0.00,VWS V14.01,2013-01-20 09:33:00,
2013-01-20 04:38:00,30.4,27.0,29.68,NNW,338,0.0,0.0,87,0.00,,OVC,0.00,VWS V14.01,2013-01-20 09:38:00,
2013-01-20 04:43:00,30.6,27.2,29.68,NNW,338,0.0,0.0,87,0.00,,OVC,0.00,VWS V14.01,2013-01-20 09:43:00,
2013-01-20 04:48:00,30.7,27.6,29.68,NNW,338,0.0,0.0,88,0.00,,OVC,0.00,VWS V14.01,2013-01-20 09:48:00,
2013-01-20 04:53:00,30.9,27.8,29.68,NNW,338,0.0,0.0,88,0.00,,OVC,0.00,VWS V14.01,2013-01-20 09:53:00,
2013-01-20 04:58:00,31.1,28.2,29.68,NNW,338,0.0,0.0,89,0.00,,OVC,0.00,VWS V14.01,2013-01-20 09:58:00,
2013-01-20 05:00:00,30.9,28.1,29.68,NNW,338,0.0,0.0,89,0.00,,OVC,0.00,VWS V14.01,2013-01-20 10:00:00,
2013-01-20 05:03:00,31.1,28.2,29.68,NNW,338,0.0,0.0,89,0.00,,OVC,0.00,VWS V14.01,2013-01-20 10:03:00,
2013-01-20 05:08:00,31.1,28.2,29.68,NNW,338,0.0,0.0,89,0.00,,OVC,0.00,VWS V14.01,2013-01-20 10:08:00,
2013-01-20 05:13:00,31.5,28.6,29.68,NNW,338,0.0,0.0,89,0.00,,OVC,0.00,VWS V14.01,2013-01-20 10:13:00,
2013-01-20 05:18:00,31.5,28.6,29.68,NNW,338,0.0,0.0,89,0.00,,OVC,0.00,VWS V14.01,2013-01-20 10:18:00,
2013-01-20 05:23:00,31.6,29.0,29.68,NNW,338,0.0,0.0,90,0.00,,OVC,0.00,VWS V14.01,2013-01-20 10:23:00,
2013-01-20 05:28:00,31.6,29.3,29.68,North,0,0.0,0.0,91,0.00,,OVC,0.00,VWS V14.01,2013-01-20 10:28:00,
2013-01-20 05:30:00,31.6,29.3,29.68,North,0,0.0,0.0,91,0.00,,OVC,0.00,VWS V14.01,2013-01-20 10:30:00,
2013-01-20 05:33:00,31.6,29.3,29.68,North,0,0.0,0.0,91,0.00,,OVC,0.00,VWS V14.01,2013-01-20 10:33:00,
2013-01-20 05:38:00,31.8,29.5,29.65,ENE,68,0.0,0.0,91,0.00,,OVC,0.00,VWS V14.01,2013-01-20 10:38:00,
2013-01-20 05:43:00,31.8,29.5,29.65,NNW,338,0.0,0.0,91,0.00,,OVC,0.00,VWS V14.01,2013-01-20 10:43:00,
2013-01-20 05:48:00,31.8,29.5,29.65,ENE,68,0.0,0.0,91,0.00,,OVC,0.00,VWS V14.01,2013-01-20 10:48:00,
2013-01-20 05:53:00,31.8,29.5,29.65,ENE,68,0.0,0.0,91,0.00,,OVC,0.00,VWS V14.01,2013-01-20 10:53:00,
2013-01-20 05:58:00,31.6,29.3,29.65,ENE,68,0.0,0.0,91,0.00,,OVC,0.00,VWS V14.01,2013-01-20 10:58:00,
2013-01-20 06:00:00,31.8,29.5,29.65,ENE,68,0.0,0.0,91,0.00,,OVC,0.00,VWS V14.01,2013-01-20 11:00:00,
2013-01-20 06:03:00,31.6,29.3,29.65,ENE,68,0.0,0.0,91,0.00,,OVC,0.00,VWS V14.01,2013-01-20 11:03:00,
2013-01-20 06:08:00,31.6,29.3,29.65,East,90,0.0,0.0,91,0.00,,OVC,0.00,VWS V14.01,2013-01-20 11:08:00,
2013-01-20 06:13:00,31.3,28.7,29.65,North,0,0.0,0.0,90,0.00,,OVC,0.00,VWS V14.01,2013-01-20 11:13:00,
2013-01-20 06:18:00,31.3,28.7,29.65,NNE,22,0.0,0.0,90,0.00,,OVC,0.00,VWS V14.01,2013-01-20 11:18:00,
2013-01-20 06:23:00,31.1,28.5,29.62,NNE,22,0.0,0.0,90,0.00,,OVC,0.00,VWS V14.01,2013-01-20 11:23:00,
2013-01-20 06:28:00,31.1,28.5,29.62,SSE,158,0.0,0.0,90,0.00,,OVC,0.00,VWS V14.01,2013-01-20 11:28:00,
2013-01-20 06:30:00,31.1,28.5,29.62,SSE,158,0.0,0.0,90,0.00,,OVC,0.00,VWS V14.01,2013-01-20 11:30:00,
2013-01-20 06:33:00,31.1,28.5,29.62,SSW,202,0.0,0.0,90,0.00,,OVC,0.00,VWS V14.01,2013-01-20 11:33:00,
2013-01-20 06:39:00,31.1,28.8,29.59,NE,45,0.0,0.0,91,0.00,,OVC,0.00,VWS V14.01,2013-01-20 11:39:00,
2013-01-20 06:43:00,31.1,29.0,29.59,ENE,68,0.0,0.0,92,0.00,,OVC,0.00,VWS V14.01,2013-01-20 11:43:00,
2013-01-20 06:48:00,30.9,28.9,29.59,ENE,68,0.0,0.0,92,0.00,,OVC,0.00,VWS V14.01,2013-01-20 11:48:00,
2013-01-20 06:54:00,30.4,28.1,29.59,ENE,68,0.0,0.0,91,0.00,,OVC,0.00,VWS V14.01,2013-01-20 11:54:00,
2013-01-20 06:59:00,30.0,27.5,29.59,NE,45,0.0,0.0,90,0.00,,OVC,0.00,VWS V14.01,2013-01-20 11:59:00,
2013-01-20 07:00:00,30.2,27.9,29.59,ENE,68,0.0,0.0,91,0.00,,OVC,0.00,VWS V14.01,2013-01-20 12:00:00,
2013-01-20 07:04:00,29.8,27.3,29.59,NE,45,0.0,0.0,90,0.00,,OVC,0.00,VWS V14.01,2013-01-20 12:04:00,
2013-01-20 07:09:00,29.5,26.9,29.59,NE,45,0.0,0.0,90,0.00,,OVC,0.00,VWS V14.01,2013-01-20 12:09:00,
2013-01-20 07:14:00,29.3,26.7,29.59,NE,45,0.0,0.0,90,0.00,,OVC,0.00,VWS V14.01,2013-01-20 12:14:00,
2013-01-20 07:19:00,29.5,27.2,29.59,NE,45,0.0,0.0,91,0.00,,OVC,0.00,VWS V14.01,2013-01-20 12:19:00,
2013-01-20 07:24:00,29.3,27.0,29.56,NE,45,0.0,0.0,91,0.00,,OVC,0.00,VWS V14.01,2013-01-20 12:24:00,
2013-01-20 07:29:00,29.1,26.8,29.56,NE,45,0.0,0.0,91,0.00,,OVC,0.00,VWS V14.01,2013-01-20 12:29:00,
2013-01-20 07:30:00,29.3,27.0,29.56,NE,45,0.0,0.0,91,0.00,,OVC,0.00,VWS V14.01,2013-01-20 12:30:00,
2013-01-20 07:34:00,29.1,26.8,29.56,NE,45,0.0,0.0,91,0.00,,OVC,0.00,VWS V14.01,2013-01-20 12:34:00,
2013-01-20 07:39:00,28.9,26.6,29.56,NE,45,0.0,0.0,91,0.00,,OVC,0.00,VWS V14.01,2013-01-20 12:39:00,
2013-01-20 07:44:00,28.6,26.3,29.56,NE,45,0.0,0.0,91,0.00,,OVC,0.00,VWS V14.01,2013-01-20 12:44:00,
2013-01-20 07:49:00,28.8,26.5,29.56,NE,45,0.0,0.0,91,0.00,,OVC,0.00,VWS V14.01,2013-01-20 12:49:00,
2013-01-20 07:54:00,28.6,26.3,29.56,NE,45,0.0,0.0,91,0.00,,OVC,0.00,VWS V14.01,2013-01-20 12:54:00,
2013-01-20 07:59:00,29.1,27.1,29.56,NE,45,0.0,0.0,92,0.00,,OVC,0.00,VWS V14.01,2013-01-20 12:59:00,
2013-01-20 08:00:00,28.6,26.3,29.56,NE,45,0.0,0.0,91,0.00,,OVC,0.00,VWS V14.01,2013-01-20 13:00:00,
2013-01-20 08:04:00,29.5,27.7,29.56,NE,45,0.0,0.0,93,0.00,,OVC,0.00,VWS V14.01,2013-01-20 13:04:00,
2013-01-20 08:09:00,30.0,28.5,29.53,SSE,158,0.0,0.0,94,0.00,,OVC,0.00,VWS V14.01,2013-01-20 13:09:00,
2013-01-20 08:14:00,32.2,31.2,29.53,SSE,158,0.0,2.9,96,0.00,,OVC,0.00,VWS V14.01,2013-01-20 13:14:00,
2013-01-20 08:19:00,34.7,34.2,29.53,SSE,158,0.0,0.9,98,0.00,,OVC,0.00,VWS V14.01,2013-01-20 13:19:00,
2013-01-20 08:24:00,36.5,36.0,29.53,SSW,202,1.3,4.0,98,0.00,,OVC,0.00,VWS V14.01,2013-01-20 13:24:00,
2013-01-20 08:29:00,38.3,37.8,29.53,SSE,158,1.6,2.9,98,0.00,,OVC,0.00,VWS V14.01,2013-01-20 13:29:00,
2013-01-20 08:30:00,37.0,36.5,29.53,SSW,202,3.8,4.3,98,0.00,,OVC,0.00,VWS V14.01,2013-01-20 13:30:00,
2013-01-20 08:34:00,39.6,39.0,29.53,SSE,158,2.5,2.7,98,0.00,,OVC,0.00,VWS V14.01,2013-01-20 13:34:00,
2013-01-20 08:39:00,41.0,40.5,29.53,SSW,202,3.1,5.8,98,0.00,,OVC,0.00,VWS V14.01,2013-01-20 13:39:00,
2013-01-20 08:44:00,41.2,40.4,29.53,South,180,2.9,4.7,97,0.00,,OVC,0.00,VWS V14.01,2013-01-20 13:44:00,
2013-01-20 08:49:00,42.1,38.2,29.53,WSW,248,2.7,5.4,86,0.00,,OVC,0.00,VWS V14.01,2013-01-20 13:49:00,
2013-01-20 08:54:00,42.1,36.0,29.50,SSW,202,5.4,6.0,79,0.00,,OVC,0.00,VWS V14.01,2013-01-20 13:54:00,
2013-01-20 08:59:00,42.6,35.6,29.50,SSE,158,3.1,7.2,76,0.00,,OVC,0.00,VWS V14.01,2013-01-20 13:59:00,
2013-01-20 09:00:00,42.3,35.9,29.50,SE,135,2.9,5.6,78,0.00,,OVC,0.00,VWS V14.01,2013-01-20 14:00:00,
2013-01-20 09:04:00,43.3,34.6,29.50,SSE,158,3.4,8.7,71,0.00,,OVC,0.00,VWS V14.01,2013-01-20 14:04:00,
2013-01-20 09:09:00,44.8,34.9,29.50,SSW,202,6.5,6.5,68,0.00,,OVC,0.00,VWS V14.01,2013-01-20 14:09:00,
2013-01-20 09:14:00,45.7,35.4,29.50,SW,225,6.3,6.3,67,0.00,,OVC,0.00,VWS V14.01,2013-01-20 14:14:00,
2013-01-20 09:19:00,46.2,33.1,29.50,West,270,2.7,3.8,60,0.00,,OVC,0.00,VWS V14.01,2013-01-20 14:19:00,
2013-01-20 09:24:00,46.8,32.3,29.50,SSW,202,5.8,8.5,57,0.00,,OVC,0.00,VWS V14.01,2013-01-20 14:24:00,
2013-01-20 09:29:00,47.3,31.0,29.50,SSE,158,3.8,8.5,53,0.00,,OVC,0.00,VWS V14.01,2013-01-20 14:29:00,
2013-01-20 09:30:00,46.8,31.5,29.50,SSW,202,4.3,7.6,55,0.00,,OVC,0.00,VWS V14.01,2013-01-20 14:30:00,
2013-01-20 09:34:00,47.8,31.1,29.50,SW,225,4.3,6.0,52,0.00,,OVC,0.00,VWS V14.01,2013-01-20 14:34:00,
2013-01-20 09:39:00,47.8,31.1,29.50,SW,225,6.0,6.0,52,0.00,,OVC,0.00,VWS V14.01,2013-01-20 14:39:00,
2013-01-20 09:44:00,47.8,31.1,29.50,SSW,202,5.4,7.8,52,0.00,,OVC,0.00,VWS V14.01,2013-01-20 14:44:00,
2013-01-20 09:49:00,50.0,30.6,29.50,South,180,5.8,8.1,47,0.00,,OVC,0.00,VWS V14.01,2013-01-20 14:49:00,
2013-01-20 09:54:00,50.0,30.6,29.50,WSW,248,7.8,10.1,47,0.00,,OVC,0.00,VWS V14.01,2013-01-20 14:54:00,
2013-01-20 10:00:00,49.3,29.4,29.50,SE,135,3.8,7.6,46,0.00,,OVC,0.00,VWS V14.01,2013-01-20 15:00:00,
2013-01-20 10:05:00,49.6,29.2,29.50,SE,135,3.4,15.4,45,0.00,,OVC,0.00,VWS V14.01,2013-01-20 15:05:00,
2013-01-20 10:10:00,50.2,29.7,29.47,South,180,4.0,6.5,45,0.00,,OVC,0.00,VWS V14.01,2013-01-20 15:10:00,
2013-01-20 10:15:00,50.9,29.8,29.47,SW,225,5.4,6.7,44,0.00,,OVC,0.00,VWS V14.01,2013-01-20 15:15:00,
2013-01-20 10:20:00,50.9,29.8,29.47,SSW,202,14.5,14.5,44,0.00,,OVC,0.00,VWS V14.01,2013-01-20 15:20:00,
2013-01-20 10:25:00,50.9,29.8,29.44,WNW,292,2.7,6.5,44,0.00,,OVC,0.00,VWS V14.01,2013-01-20 15:25:00,
2013-01-20 10:30:00,51.4,28.5,29.44,WNW,292,6.5,6.5,41,0.00,,OVC,0.00,VWS V14.01,2013-01-20 15:30:00,
2013-01-20 10:35:00,51.4,28.5,29.44,WSW,248,5.6,8.5,41,0.00,,OVC,0.00,VWS V14.01,2013-01-20 15:35:00,
2013-01-20 10:40:00,51.4,28.5,29.44,SSW,202,4.0,4.0,41,0.00,,OVC,0.00,VWS V14.01,2013-01-20 15:40:00,
2013-01-20 10:45:00,51.4,28.5,29.44,SW,225,5.4,10.1,41,0.00,,OVC,0.00,VWS V14.01,2013-01-20 15:45:00,
2013-01-20 10:50:00,51.6,27.5,29.44,SW,225,2.7,4.9,39,0.00,,OVC,0.00,VWS V14.01,2013-01-20 15:50:00,
2013-01-20 10:55:00,51.6,27.5,29.44,SE,135,7.8,7.8,39,0.00,,OVC,0.00,VWS V14.01,2013-01-20 15:55:00,
2013-01-20 11:00:00,50.7,26.0,29.44,WSW,248,10.5,10.5,38,0.00,,OVC,0.00,VWS V14.01,2013-01-20 16:00:00,
2013-01-20 11:05:00,50.4,25.7,29.44,SSW,202,6.5,6.7,38,0.00,,OVC,0.00,VWS V14.01,2013-01-20 16:05:00,
2013-01-20 11:10:00,50.4,25.7,29.44,SSW,202,3.8,6.0,38,0.00,,OVC,0.00,VWS V14.01,2013-01-20 16:10:00,
2013-01-20 11:15:00,50.4,25.7,29.44,SSW,202,5.8,6.9,38,0.00,,OVC,0.00,VWS V14.01,2013-01-20 16:15:00,
2013-01-20 11:20:00,50.4,25.7,29.44,WSW,248,2.0,4.3,38,0.00,,OVC,0.00,VWS V14.01,2013-01-20 16:20:00,
2013-01-20 11:25:00,50.7,25.4,29.41,WSW,248,9.8,9.8,37,0.00,,OVC,0.00,VWS V14.01,2013-01-20 16:25:00,
2013-01-20 11:30:00,50.2,24.9,29.41,WSW,248,8.1,8.1,37,0.00,,OVC,0.00,VWS V14.01,2013-01-20 16:30:00,
2013-01-20 11:35:00,50.4,25.1,29.41,South,180,2.5,4.0,37,0.00,,OVC,0.00,VWS V14.01,2013-01-20 16:35:00,
2013-01-20 11:40:00,50.4,25.1,29.38,East,90,2.0,5.8,37,0.00,,OVC,0.00,VWS V14.01,2013-01-20 16:40:00,
2013-01-20 11:45:00,50.4,25.1,29.38,North,0,3.8,6.5,37,0.00,,OVC,0.00,VWS V14.01,2013-01-20 16:45:00,
2013-01-20 11:50:00,49.8,24.0,29.38,NNW,338,7.4,9.8,36,0.00,,OVC,0.00,VWS V14.01,2013-01-20 16:50:00,
2013-01-20 11:55:00,49.3,23.5,29.38,WSW,248,7.6,11.0,36,0.00,,OVC,0.00,VWS V14.01,2013-01-20 16:55:00,
2013-01-20 12:00:00,48.7,23.6,29.38,SSE,158,2.5,5.4,37,0.00,,OVC,0.00,VWS V14.01,2013-01-20 17:00:00,
2013-01-20 12:05:00,48.2,23.2,29.38,South,180,1.6,7.8,37,0.00,,OVC,0.00,VWS V14.01,2013-01-20 17:05:00,
2013-01-20 12:10:00,48.2,23.2,29.38,SE,135,2.7,3.4,37,0.00,,OVC,0.00,VWS V14.01,2013-01-20 17:10:00,
2013-01-20 12:15:00,47.8,22.9,29.38,NNW,338,10.7,11.0,37,0.00,,OVC,0.00,VWS V14.01,2013-01-20 17:15:00,
2013-01-20 12:20:00,47.3,22.4,29.38,WSW,248,4.3,5.4,37,0.00,,OVC,0.00,VWS V14.01,2013-01-20 17:20:00,
2013-01-20 12:25:00,47.3,23.0,29.38,SSW,202,4.9,8.7,38,0.00,,OVC,0.00,VWS V14.01,2013-01-20 17:25:00,
2013-01-20 12:30:00,47.3,23.0,29.38,SSW,202,3.4,7.4,38,0.00,,OVC,0.00,VWS V14.01,2013-01-20 17:30:00,
2013-01-20 12:35:00,46.9,22.7,29.38,SSE,158,6.5,9.4,38,0.00,,OVC,0.00,VWS V14.01,2013-01-20 17:35:00,
2013-01-20 12:40:00,46.8,22.5,29.38,West,270,10.5,10.5,38,0.00,,OVC,0.00,VWS V14.01,2013-01-20 17:40:00,
2013-01-20 12:45:00,46.9,22.7,29.38,NW,315,5.4,6.0,38,0.00,,OVC,0.00,VWS V14.01,2013-01-20 17:45:00,
2013-01-20 12:50:00,46.8,22.5,29.38,WNW,292,5.6,5.6,38,0.00,,OVC,0.00,VWS V14.01,2013-01-20 17:50:00,
2013-01-20 12:55:00,46.6,22.4,29.38,NW,315,5.6,10.1,38,0.00,,OVC,0.00,VWS V14.01,2013-01-20 17:55:00,
2013-01-20 13:00:00,46.6,22.4,29.38,West,270,3.1,9.0,38,0.00,,OVC,0.00,VWS V14.01,2013-01-20 18:00:00,
2013-01-20 13:05:00,46.2,22.6,29.38,NNW,338,0.9,4.0,39,0.00,,OVC,0.00,VWS V14.01,2013-01-20 18:05:00,
2013-01-20 13:10:00,46.0,22.5,29.38,SW,225,3.6,5.8,39,0.00,,OVC,0.00,VWS V14.01,2013-01-20 18:10:00,
2013-01-20 13:15:00,45.9,22.3,29.38,WNW,292,3.6,7.2,39,0.00,,OVC,0.00,VWS V14.01,2013-01-20 18:15:00,
2013-01-20 13:20:00,45.9,22.3,29.38,SSW,202,2.0,3.8,39,0.00,,OVC,0.00,VWS V14.01,2013-01-20 18:20:00,
2013-01-20 13:25:00,45.9,22.3,29.41,WNW,292,5.4,5.6,39,0.00,,OVC,0.00,VWS V14.01,2013-01-20 18:25:00,
2013-01-20 13:30:00,44.8,22.5,29.41,WSW,248,3.4,5.6,41,0.00,,OVC,0.00,VWS V14.01,2013-01-20 18:30:00,
2013-01-20 13:36:00,44.8,22.5,29.41,West,270,3.6,4.0,41,0.00,,OVC,0.00,VWS V14.01,2013-01-20 18:36:00,
2013-01-20 13:41:00,44.8,22.5,29.41,NNW,338,3.4,4.7,41,0.00,,OVC,0.00,VWS V14.01,2013-01-20 18:41:00,
2013-01-20 13:46:00,44.8,22.5,29.41,NNW,338,5.6,5.8,41,0.00,,OVC,0.00,VWS V14.01,2013-01-20 18:46:00,
2013-01-20 13:51:00,44.8,22.5,29.41,NW,315,2.7,8.5,41,0.00,,OVC,0.00,VWS V14.01,2013-01-20 18:51:00,
2013-01-20 13:56:00,44.6,21.2,29.41,WNW,292,4.0,7.2,39,0.00,,OVC,0.00,VWS V14.01,2013-01-20 18:56:00,
2013-01-20 14:00:00,44.6,21.2,29.41,NNW,338,3.8,6.0,39,0.00,,OVC,0.00,VWS V14.01,2013-01-20 19:00:00,
2013-01-20 14:01:00,44.1,21.3,29.41,WNW,292,1.3,4.0,40,0.00,,OVC,0.00,VWS V14.01,2013-01-20 19:01:00,
2013-01-20 14:06:00,44.4,21.6,29.44,WNW,292,3.8,6.0,40,0.00,,OVC,0.00,VWS V14.01,2013-01-20 19:06:00,
2013-01-20 14:11:00,44.6,21.2,29.44,West,270,2.5,4.0,39,0.00,,OVC,0.00,VWS V14.01,2013-01-20 19:11:00,
2013-01-20 14:16:00,44.6,20.6,29.44,SE,135,3.6,5.4,38,0.00,,OVC,0.00,VWS V14.01,2013-01-20 19:16:00,
2013-01-20 14:21:00,44.6,20.6,29.44,WNW,292,7.8,8.7,38,0.00,,OVC,0.00,VWS V14.01,2013-01-20 19:21:00,
2013-01-20 14:26:00,44.6,20.6,29.44,NNW,338,4.0,5.4,38,0.00,,OVC,0.00,VWS V14.01,2013-01-20 19:26:00,
2013-01-20 14:30:00,44.4,21.0,29.44,WNW,292,6.3,6.3,39,0.00,,OVC,0.00,VWS V14.01,2013-01-20 19:30:00,
2013-01-20 14:31:00,44.4,20.4,29.44,WNW,292,9.0,9.0,38,0.00,,OVC,0.00,VWS V14.01,2013-01-20 19:31:00,
2013-01-20 14:36:00,44.6,18.7,29.44,NW,315,5.8,11.0,35,0.00,,OVC,0.00,VWS V14.01,2013-01-20 19:36:00,
2013-01-20 14:41:00,44.6,19.3,29.44,WSW,248,5.4,7.6,36,0.00,,OVC,0.00,VWS V14.01,2013-01-20 19:41:00,
2013-01-20 14:46:00,44.4,18.5,29.44,WSW,248,2.7,19.5,35,0.00,,OVC,0.00,VWS V14.01,2013-01-20 19:46:00,
2013-01-20 14:51:00,44.4,17.8,29.44,West,270,6.5,8.5,34,0.00,,OVC,0.00,VWS V14.01,2013-01-20 19:51:00,
2013-01-20 14:56:00,44.1,18.2,29.44,WNW,292,3.4,5.8,35,0.00,,OVC,0.00,VWS V14.01,2013-01-20 19:56:00,
2013-01-20 15:00:00,44.1,18.2,29.44,WNW,292,1.3,3.4,35,0.00,,OVC,0.00,VWS V14.01,2013-01-20 20:00:00,
2013-01-20 15:01:00,44.1,18.2,29.44,WSW,248,5.6,7.4,35,0.00,,OVC,0.00,VWS V14.01,2013-01-20 20:01:00,
2013-01-20 15:06:00,43.7,18.5,29.44,SE,135,2.0,2.0,36,0.00,,OVC,0.00,VWS V14.01,2013-01-20 20:06:00,
2013-01-20 15:11:00,43.9,18.0,29.44,NNW,338,6.7,6.7,35,0.00,,OVC,0.00,VWS V14.01,2013-01-20 20:11:00,
2013-01-20 15:16:00,43.7,17.9,29.44,WNW,292,3.8,6.9,35,0.00,,OVC,0.00,VWS V14.01,2013-01-20 20:16:00,
2013-01-20 15:21:00,43.5,17.7,29.44,WNW,292,4.3,5.6,35,0.00,,OVC,0.00,VWS V14.01,2013-01-20 20:21:00,
2013-01-20 15:26:00,43.3,17.5,29.44,NNW,338,7.6,8.1,35,0.00,,OVC,0.00,VWS V14.01,2013-01-20 20:26:00,
2013-01-20 15:30:00,43.3,17.5,29.44,WNW,292,13.2,13.2,35,0.00,,OVC,0.00,VWS V14.01,2013-01-20 20:30:00,
2013-01-20 15:31:00,42.8,19.6,29.44,NNW,338,7.6,14.5,39,0.00,,OVC,0.00,VWS V14.01,2013-01-20 20:31:00,
2013-01-20 15:36:00,41.4,21.1,29.44,NNW,338,11.0,12.5,44,0.00,,OVC,0.00,VWS V14.01,2013-01-20 20:36:00,
2013-01-20 15:41:00,40.8,21.1,29.44,WNW,292,4.9,10.7,45,0.00,,OVC,0.00,VWS V14.01,2013-01-20 20:41:00,
2013-01-20 15:46:00,40.3,21.2,29.44,NNW,338,11.0,11.0,46,0.00,,OVC,0.00,VWS V14.01,2013-01-20 20:46:00,
2013-01-20 15:51:00,40.1,21.5,29.47,NW,315,3.4,9.8,47,0.00,,OVC,0.00,VWS V14.01,2013-01-20 20:51:00,
2013-01-20 15:57:00,40.1,21.5,29.47,NW,315,5.8,7.4,47,0.00,,OVC,0.00,VWS V14.01,2013-01-20 20:57:00,
2013-01-20 16:00:00,40.1,21.5,29.47,NW,315,2.0,7.4,47,0.00,,OVC,0.00,VWS V14.01,2013-01-20 21:00:00,
2013-01-20 16:02:00,39.9,21.3,29.47,NNW,338,5.8,6.0,47,0.00,,OVC,0.00,VWS V14.01,2013-01-20 21:02:00,
2013-01-20 16:07:00,39.9,21.3,29.50,WNW,292,6.5,6.5,47,0.00,,OVC,0.00,VWS V14.01,2013-01-20 21:07:00,
2013-01-20 16:12:00,39.9,20.3,29.50,WNW,292,6.3,6.3,45,0.00,,OVC,0.00,VWS V14.01,2013-01-20 21:12:00,
2013-01-20 16:17:00,39.9,20.3,29.50,NNW,338,8.7,8.7,45,0.00,,OVC,0.00,VWS V14.01,2013-01-20 21:17:00,
2013-01-20 16:22:00,39.9,18.7,29.50,NNW,338,5.6,7.6,42,0.00,,OVC,0.00,VWS V14.01,2013-01-20 21:22:00,
2013-01-20 16:27:00,39.9,18.7,29.50,NNW,338,6.9,10.7,42,0.00,,OVC,0.00,VWS V14.01,2013-01-20 21:27:00,
2013-01-20 16:30:00,39.9,18.7,29.50,NNW,338,10.7,10.7,42,0.00,,OVC,0.00,VWS V14.01,2013-01-20 21:30:00,
2013-01-20 16:32:00,39.7,18.0,29.50,NNW,338,7.2,7.2,41,0.00,,OVC,0.00,VWS V14.01,2013-01-20 21:32:00,
2013-01-20 16:37:00,39.7,18.0,29.47,NW,315,2.5,8.5,41,0.00,,OVC,0.00,VWS V14.01,2013-01-20 21:37:00,
2013-01-20 16:42:00,39.4,17.7,29.47,NNW,338,3.8,3.8,41,0.00,,OVC,0.00,VWS V14.01,2013-01-20 21:42:00,
2013-01-20 16:48:00,39.4,17.7,29.47,WNW,292,3.4,4.0,41,0.00,,OVC,0.00,VWS V14.01,2013-01-20 21:48:00,
2013-01-20 16:53:00,39.0,17.3,29.50,NW,315,2.5,3.1,41,0.00,,OVC,0.00,VWS V14.01,2013-01-20 21:53:00,
2013-01-20 16:58:00,38.7,17.6,29.50,NW,315,2.2,2.5,42,0.00,,OVC,0.00,VWS V14.01,2013-01-20 21:58:00,
2013-01-20 17:00:00,38.8,17.7,29.50,WNW,292,2.5,4.0,42,0.00,,OVC,0.00,VWS V14.01,2013-01-20 22:00:00,
2013-01-20 17:03:00,38.5,17.4,29.50,WNW,292,3.6,4.3,42,0.00,,OVC,0.00,VWS V14.01,2013-01-20 22:03:00,
2013-01-20 17:08:00,38.3,17.2,29.53,NW,315,1.3,3.8,42,0.00,,OVC,0.00,VWS V14.01,2013-01-20 22:08:00,
2013-01-20 17:13:00,38.1,17.1,29.53,WNW,292,3.8,3.8,42,0.00,,OVC,0.00,VWS V14.01,2013-01-20 22:13:00,
2013-01-20 17:18:00,38.3,16.7,29.53,WNW,292,2.9,2.9,41,0.00,,OVC,0.00,VWS V14.01,2013-01-20 22:18:00,
2013-01-20 17:23:00,38.5,16.3,29.53,WNW,292,2.9,9.6,40,0.00,,OVC,0.00,VWS V14.01,2013-01-20 22:23:00,
2013-01-20 17:28:00,38.7,15.3,29.53,NNW,338,7.6,9.8,38,0.00,,OVC,0.00,VWS V14.01,2013-01-20 22:28:00,
2013-01-20 17:30:00,38.7,15.3,29.53,NNW,338,6.3,11.0,38,0.00,,OVC,0.00,VWS V14.01,2013-01-20 22:30:00,
2013-01-20 17:33:00,38.5,13.9,29.53,NNW,338,8.5,8.5,36,0.00,,OVC,0.00,VWS V14.01,2013-01-20 22:33:00,
2013-01-20 17:38:00,38.5,11.9,29.53,NW,315,8.5,13.0,33,0.00,,OVC,0.00,VWS V14.01,2013-01-20 22:38:00,
2013-01-20 17:43:00,38.5,11.2,29.53,NNW,338,4.9,5.8,32,0.00,,OVC,0.00,VWS V14.01,2013-01-20 22:43:00,
2013-01-20 17:48:00,38.3,10.3,29.53,NNW,338,7.8,9.8,31,0.00,,OVC,0.00,VWS V14.01,2013-01-20 22:48:00,
2013-01-20 17:53:00,38.3,11.0,29.56,WNW,292,8.5,8.5,32,0.00,,OVC,0.00,VWS V14.01,2013-01-20 22:53:00,
2013-01-20 17:58:00,38.1,10.2,29.56,WNW,292,7.4,9.4,31,0.00,,OVC,0.00,VWS V14.01,2013-01-20 22:58:00,
2013-01-20 18:00:00,38.1,10.2,29.56,NW,315,9.4,12.8,31,0.00,,OVC,0.00,VWS V14.01,2013-01-20 23:00:00,
2013-01-20 18:03:00,37.8,9.9,29.56,NNW,338,6.5,7.8,31,0.00,,OVC,0.00,VWS V14.01,2013-01-20 23:03:00,
2013-01-20 18:08:00,37.9,10.0,29.56,NW,315,6.0,11.0,31,0.00,,OVC,0.00,VWS V14.01,2013-01-20 23:08:00,
2013-01-20 18:13:00,37.8,9.9,29.56,NW,315,10.7,10.7,31,0.00,,OVC,0.00,VWS V14.01,2013-01-20 23:13:00,
2013-01-20 18:18:00,37.6,9.7,29.56,WSW,248,8.5,11.0,31,0.00,,OVC,0.00,VWS V14.01,2013-01-20 23:18:00,
2013-01-20 18:23:00,37.4,8.8,29.56,NW,315,7.6,9.8,30,0.00,,OVC,0.00,VWS V14.01,2013-01-20 23:23:00,
2013-01-20 18:28:00,37.0,9.2,29.56,NNW,338,5.4,6.3,31,0.00,,OVC,0.00,VWS V14.01,2013-01-20 23:28:00,
2013-01-20 18:30:00,37.0,9.2,29.56,NNW,338,6.3,9.8,31,0.00,,OVC,0.00,VWS V14.01,2013-01-20 23:30:00,
2013-01-20 18:33:00,36.9,9.1,29.56,WNW,292,14.3,14.3,31,0.00,,OVC,0.00,VWS V14.01,2013-01-20 23:33:00,
2013-01-20 18:38:00,36.9,9.1,29.59,WNW,292,10.1,10.1,31,0.00,,OVC,0.00,VWS V14.01,2013-01-20 23:38:00,
2013-01-20 18:43:00,36.9,8.3,29.59,NNW,338,6.0,12.8,30,0.00,,OVC,0.00,VWS V14.01,2013-01-20 23:43:00,
2013-01-20 18:48:00,36.5,8.0,29.59,WNW,292,6.5,11.0,30,0.00,,OVC,0.00,VWS V14.01,2013-01-20 23:48:00,
2013-01-20 18:53:00,36.1,7.7,29.62,NNW,338,14.5,14.5,30,0.00,,OVC,0.00,VWS V14.01,2013-01-20 23:53:00,
2013-01-20 18:58:00,36.0,7.6,29.62,NNW,338,10.1,10.1,30,0.00,,OVC,0.00,VWS V14.01,2013-01-20 23:58:00,
2013-01-20 19:00:00,36.1,7.7,29.62,WNW,292,11.0,12.5,30,0.00,,OVC,0.00,VWS V14.01,2013-01-21 00:00:00,
2013-01-20 19:03:00,35.8,7.4,29.62,NW,315,8.5,15.4,30,0.00,,OVC,0.00,VWS V14.01,2013-01-21 00:03:00,
2013-01-20 19:08:00,35.4,7.8,29.62,NNW,338,8.7,10.3,31,0.00,,OVC,0.00,VWS V14.01,2013-01-21 00:08:00,
2013-01-20 19:13:00,35.2,7.7,29.62,NNW,338,15.2,15.2,31,0.00,,OVC,0.00,VWS V14.01,2013-01-21 00:13:00,
2013-01-20 19:19:00,35.1,7.5,29.62,WNW,292,14.1,14.1,31,0.00,,OVC,0.00,VWS V14.01,2013-01-21 00:19:00,
2013-01-20 19:24:00,34.9,7.3,29.62,NW,315,7.8,7.8,31,0.00,,OVC,0.00,VWS V14.01,2013-01-21 00:24:00,
2013-01-20 19:30:00,34.3,6.9,29.62,WNW,292,6.3,11.0,31,0.00,,OVC,0.00,VWS V14.01,2013-01-21 00:30:00,
2013-01-20 19:35:00,34.2,6.7,29.62,NNW,338,10.7,10.7,31,0.00,,OVC,0.00,VWS V14.01,2013-01-21 00:35:00,
2013-01-20 19:41:00,34.2,6.7,29.62,NW,315,10.5,12.8,31,0.00,,OVC,0.00,VWS V14.01,2013-01-21 00:41:00,
2013-01-20 19:46:00,33.8,6.4,29.62,NNW,338,12.5,13.9,31,0.00,,OVC,0.00,VWS V14.01,2013-01-21 00:46:00,
2013-01-20 19:51:00,33.6,6.2,29.59,NNW,338,6.3,9.2,31,0.00,,OVC,0.00,VWS V14.01,2013-01-21 00:51:00,
2013-01-20 19:56:00,33.4,6.1,29.59,NNW,338,13.2,13.2,31,0.00,,OVC,0.00,VWS V14.01,2013-01-21 00:56:00,
2013-01-20 20:00:00,33.3,5.9,29.59,NNW,338,13.2,13.2,31,0.00,,OVC,0.00,VWS V14.01,2013-01-21 01:00:00,
2013-01-20 20:01:00,33.3,5.9,29.59,NW,315,8.5,10.3,31,0.00,,OVC,0.00,VWS V14.01,2013-01-21 01:01:00,
2013-01-20 20:06:00,33.1,5.8,29.62,NNW,338,10.3,10.3,31,0.00,,OVC,0.00,VWS V14.01,2013-01-21 01:06:00,
2013-01-20 20:11:00,32.7,4.7,29.62,NW,315,10.1,10.1,30,0.00,,OVC,0.00,VWS V14.01,2013-01-21 01:11:00,
2013-01-20 20:16:00,32.7,4.7,29.62,NW,315,7.8,10.7,30,0.00,,OVC,0.00,VWS V14.01,2013-01-21 01:16:00,
2013-01-20 20:21:00,32.5,4.6,29.65,WNW,292,7.6,13.0,30,0.00,,OVC,0.00,VWS V14.01,2013-01-21 01:21:00,
2013-01-20 20:27:00,32.5,4.6,29.65,NW,315,8.1,12.8,30,0.00,,OVC,0.00,VWS V14.01,2013-01-21 01:27:00,
2013-01-20 20:30:00,32.5,4.6,29.65,NW,315,8.1,12.8,30,0.00,,OVC,0.00,VWS V14.01,2013-01-21 01:30:00,
2013-01-20 20:32:00,32.4,4.4,29.65,NW,315,7.8,9.2,30,0.00,,OVC,0.00,VWS V14.01,2013-01-21 01:32:00,
2013-01-20 20:37:00,32.0,4.1,29.65,North,0,14.8,14.8,30,0.00,,OVC,0.00,VWS V14.01,2013-01-21 01:37:00,
2013-01-20 20:42:00,32.0,4.1,29.65,NW,315,6.9,8.1,30,0.00,,OVC,0.00,VWS V14.01,2013-01-21 01:42:00,
2013-01-20 20:47:00,31.6,3.8,29.65,NW,315,7.8,10.1,30,0.00,,OVC,0.00,VWS V14.01,2013-01-21 01:47:00,
2013-01-20 20:52:00,31.5,3.6,29.68,WNW,292,11.0,11.0,30,0.00,,OVC,0.00,VWS V14.01,2013-01-21 01:52:00,
2013-01-20 20:57:00,31.3,4.2,29.68,NNW,338,7.8,7.8,31,0.00,,OVC,0.00,VWS V14.01,2013-01-21 01:57:00,
2013-01-20 21:00:00,31.3,4.2,29.68,NNW,338,7.8,7.8,31,0.00,,OVC,0.00,VWS V14.01,2013-01-21 02:00:00,
2013-01-20 21:02:00,30.7,5.1,29.68,WNW,292,17.5,17.5,33,0.00,,OVC,0.00,VWS V14.01,2013-01-21 02:02:00,
2013-01-20 21:07:00,29.7,8.3,29.68,NNW,338,10.5,13.2,40,0.00,,OVC,0.00,VWS V14.01,2013-01-21 02:07:00,
2013-01-20 21:12:00,28.9,7.7,29.68,NNW,338,12.8,17.9,40,0.00,,OVC,0.00,VWS V14.01,2013-01-21 02:12:00,
2013-01-20 21:18:00,28.2,7.6,29.68,NW,315,14.8,19.2,41,0.00,,OVC,0.00,VWS V14.01,2013-01-21 02:18:00,
2013-01-20 21:23:00,27.9,7.2,29.65,NNW,338,9.8,13.2,41,0.00,,OVC,0.00,VWS V14.01,2013-01-21 02:23:00,
2013-01-20 21:28:00,27.7,7.1,29.65,NNW,338,12.8,14.8,41,0.00,,OVC,0.00,VWS V14.01,2013-01-21 02:28:00,
2013-01-20 21:30:00,27.9,7.2,29.65,NNW,338,14.8,15.2,41,0.00,,OVC,0.00,VWS V14.01,2013-01-21 02:30:00,
2013-01-20 21:33:00,27.3,6.2,29.65,NNW,338,12.1,17.0,40,0.00,,OVC,0.00,VWS V14.01,2013-01-21 02:33:00,
2013-01-20 21:38:00,27.1,5.5,29.68,NW,315,13.0,13.0,39,0.00,,OVC,0.00,VWS V14.01,2013-01-21 02:38:00,
2013-01-20 21:43:00,26.8,4.6,29.68,NW,315,11.4,13.2,38,0.00,,OVC,0.00,VWS V14.01,2013-01-21 02:43:00,
2013-01-20 21:48:00,26.6,3.8,29.68,NNW,338,14.8,18.6,37,0.00,,OVC,0.00,VWS V14.01,2013-01-21 02:48:00,
2013-01-20 21:53:00,26.4,3.1,29.71,NW,315,12.8,15.9,36,0.00,,OVC,0.00,VWS V14.01,2013-01-21 02:53:00,
2013-01-20 21:58:00,26.1,2.8,29.71,NW,315,11.2,15.2,36,0.00,,OVC,0.00,VWS V14.01,2013-01-21 02:58:00,
2013-01-20 22:00:00,26.1,2.8,29.71,NNW,338,13.6,21.9,36,0.00,,OVC,0.00,VWS V14.01,2013-01-21 03:00:00,
2013-01-20 22:03:00,25.9,2.0,29.71,NW,315,11.2,11.2,35,0.00,,OVC,0.00,VWS V14.01,2013-01-21 03:03:00,
2013-01-20 22:08:00,25.7,2.5,29.74,NW,315,10.7,13.0,36,0.00,,OVC,0.00,VWS V14.01,2013-01-21 03:08:00,
2013-01-20 22:13:00,25.3,0.9,29.74,WNW,292,14.8,14.8,34,0.00,,OVC,0.00,VWS V14.01,2013-01-21 03:13:00,
2013-01-20 22:18:00,25.2,0.8,29.74,WNW,292,26.0,26.0,34,0.00,,OVC,0.00,VWS V14.01,2013-01-21 03:18:00,
2013-01-20 22:23:00,24.8,0.4,29.74,NW,315,13.4,26.0,34,0.00,,OVC,0.00,VWS V14.01,2013-01-21 03:23:00,
2013-01-20 22:28:00,24.6,-0.4,29.74,NNW,338,10.5,10.5,33,0.00,,OVC,0.00,VWS V14.01,2013-01-21 03:28:00,
2013-01-20 22:30:00,24.6,0.3,29.74,NNW,338,10.5,15.4,34,0.00,,OVC,0.00,VWS V14.01,2013-01-21 03:30:00,
2013-01-20 22:33:00,24.4,0.1,29.74,NW,315,8.7,14.8,34,0.00,,OVC,0.00,VWS V14.01,2013-01-21 03:33:00,
2013-01-20 22:38:00,24.1,-0.2,29.71,NNW,338,17.7,21.3,34,0.00,,OVC,0.00,VWS V14.01,2013-01-21 03:38:00,
2013-01-20 22:43:00,23.7,-1.2,29.71,NNW,338,12.1,17.2,33,0.00,,OVC,0.00,VWS V14.01,2013-01-21 03:43:00,
2013-01-20 22:48:00,23.5,-1.3,29.71,NNW,338,15.2,15.2,33,0.00,,OVC,0.00,VWS V14.01,2013-01-21 03:48:00,
2013-01-20 22:53:00,23.4,-1.5,29.74,NNW,338,17.2,19.2,33,0.00,,OVC,0.00,VWS V14.01,2013-01-21 03:53:00,
2013-01-20 22:58:00,23.2,-1.6,29.74,NNW,338,17.5,17.5,33,0.00,,OVC,0.00,VWS V14.01,2013-01-21 03:58:00,
2013-01-20 23:00:00,23.2,-1.6,29.74,NNW,338,17.5,17.5,33,0.00,,OVC,0.00,VWS V14.01,2013-01-21 04:00:00,
2013-01-20 23:03:00,22.8,-2.0,29.74,NNW,338,15.7,17.9,33,0.00,,OVC,0.00,VWS V14.01,2013-01-21 04:03:00,
2013-01-20 23:08:00,22.6,-2.1,29.74,NNW,338,13.9,13.9,33,0.00,,OVC,0.00,VWS V14.01,2013-01-21 04:08:00,
2013-01-20 23:13:00,22.5,-2.3,29.74,NNW,338,20.6,20.6,33,0.00,,OVC,0.00,VWS V14.01,2013-01-21 04:13:00,
2013-01-20 23:18:00,22.3,-2.4,29.74,NNW,338,15.7,17.2,33,0.00,,OVC,0.00,VWS V14.01,2013-01-21 04:18:00,
2013-01-20 23:23:00,22.1,-2.6,29.76,NNW,338,17.5,18.6,33,0.00,,OVC,0.00,VWS V14.01,2013-01-21 04:23:00,
2013-01-20 23:28:00,21.9,-2.8,29.76,NNW,338,22.6,23.9,33,0.00,,OVC,0.00,VWS V14.01,2013-01-21 04:28:00,
2013-01-20 23:30:00,21.9,-2.8,29.76,NW,315,15.2,21.9,33,0.00,,OVC,0.00,VWS V14.01,2013-01-21 04:30:00,
2013-01-20 23:33:00,21.9,-2.8,29.76,WNW,292,16.3,22.2,33,0.00,,OVC,0.00,VWS V14.01,2013-01-21 04:33:00,
2013-01-20 23:38:00,21.7,-2.9,29.76,NNW,338,17.2,22.2,33,0.00,,OVC,0.00,VWS V14.01,2013-01-21 04:38:00,
2013-01-20 23:43:00,21.6,-3.1,29.76,NNW,338,13.6,17.2,33,0.00,,OVC,0.00,VWS V14.01,2013-01-21 04:43:00,
2013-01-20 23:48:00,21.4,-3.2,29.76,NW,315,10.1,13.6,33,0.00,,OVC,0.00,VWS V14.01,2013-01-21 04:48:00,
2013-01-20 23:53:00,21.2,-2.8,29.79,NW,315,13.2,23.9,34,0.00,,OVC,0.00,VWS V14.01,2013-01-21 04:53:00,
2013-01-20 23:58:00,20.8,-3.1,29.79,NNW,338,19.2,19.2,34,0.00,,OVC,0.00,VWS V14.01,2013-01-21 04:58:00,